Location: Rounton
(54.4000°N, 1.3500°W)
Time: 05:01:40
(UTC+00:00)

A-11 Canister half - Pass Details

Date: 08 December 2021
Orbit: 1516 x 1684 km, 47.2° (Epoch: 21 January)

Event Time Altitude Azimuth Distance (km) Brightness Sun altitude
Rises 11:53:35 0° 283° (WNW) 4,863 11.5 12.8°
Reaches altitude 10° 11:57:04 10° 274° (W) 3,895 11.1 12.8°
Maximum altitude 12:05:34 33° 216° (SW) 2,536 11.2 12.8°
Drops below altitude 10° 12:14:11 10° 157° (SSE) 3,941 12.5 12.7°
Sets 12:17:45 0° 149° (SSE) 4,927 12.6 12.7°
